STARLINK-1030

Last updated on Thu Dec 12 2019 00:02:03 GMT+0000 (Coordinated Universal Time)

1 44735U 19074Y 19345.51252300 -.00022639 00000-0 -15685-3 0 9996 2 44735 53.0101 21.8910 0008942 329.1559 30.8932 15.73189759 4726
UTC large
Height (km)
Speed (km/s)
/
Latitude / Longitude
Inclination (degrees)
Orbital Period (minutes)
Azimuth
Elevation
Range (km)
Doppler Factor

Next 0 passes for location: London (51.5072 / 0.1276)

Sorry there are no passes over London.